[[{"header":{"parameterUnit":"m.s-1","parameterCategory":1,"la1":30.2991,"la2":30.254,"lo1":-89.0895,"lo2":-89.0444,"dy":0.0017,"dx":0.0017,"nx":28,"ny":28,"refTime":"2024-05-01T21:00:00:Z","depth":0,"parameterNumber":2,"parameterNumberName":"U-component_of_WINDS"},"data":[0,0,0,0,0,0,0,0,0,0,0,0,0,0,0,0,0,0,0,0,0,0,0,0,0,0,0,0,0,0,0,0,0,0,0,0,0,0,0,0,0,0,0,0,0,0,0,0,0,0,0,0,0,0,0,0,0,0,-2.7894,-2.7893,0,-2.7875,-2.7874,-2.7874,-2.7841,-2.784,-2.784,-2.7839,-2.7819,-2.7819,-2.7819,0,0,0,0,0,0,0,0,0,0,0,0,0,-2.7902,-2.7902,-2.7894,-2.7893,-2.7893,-2.7875,-2.7874,-2.7874,-2.7841,-2.784,-2.784,-2.7839,-2.7819,-2.7819,-2.7819,0,0,0,0,0,0,0,0,0,0,0,0,0,-2.7892,-2.7902,-2.7894,-2.7875,-2.7873,-2.7875,-2.7874,-2.7874,-2.7841,-2.784,-2.784,-2.7839,-2.7819,-2.7819,-2.7819,-2.7839,0,0,-2.782,-2.782,0,0,0,0,0,0,0,0,-2.7893,-2.7892,-2.7878,-2.7876,-2.7874,-2.7859,-2.787,-2.7862,-2.7842,-2.7853,-2.7839,-2.7838,-2.7833,-2.7832,-2.7831,-2.7838,-2.7837,-2.782,-2.782,-2.782,-2.782,0,0,0,0,0,0,0,-2.7894,-2.7893,-2.7886,-2.7877,-2.7875,-2.7867,-2.7865,-2.7868,-2.7849,-2.7852,-2.785,-2.7848,-2.7832,-2.7831,-2.783,-2.7837,-2.782,-2.782,-2.782,-2.782,-2.7859,-2.786,0,0,0,0,0,0,-2.7897,-2.7893,-2.7887,-2.7886,-2.7881,-2.7868,-2.7865,-2.7865,-2.7849,-2.7845,-2.7849,-2.7846,-2.7831,-2.783,-2.7829,-2.785,-2.782,-2.782,-2.782,-2.7858,-2.7859,-2.786,0,0,0,0,0,0,-2.7897,-2.7897,-2.7887,-2.7889,-2.7887,-2.7869,-2.7869,-2.7865,-2.7863,-2.7846,-2.7842,-2.7851,-2.783,-2.7829,-2.7837,-2.7849,-2.782,-2.782,-2.7856,-2.7858,-2.7859,-2.7892,0,0,0,0,0,0,-2.7898,-2.7897,-2.7904,-2.7889,-2.7887,-2.7895,-2.7869,-2.7865,-2.7864,-2.7861,-2.7847,-2.7844,-2.7829,-2.7837,-2.7837,-2.7848,-2.782,-2.7855,-2.7857,-2.7859,-2.789,-2.7894,-2.7898,0,0,0,0,0,-2.7898,-2.7914,-2.7904,-2.7904,-2.7895,-2.7896,-2.7895,-2.7878,-2.7865,-2.7872,-2.7861,-2.7844,-2.7848,-2.7838,-2.7837,-2.7849,-2.7854,-2.7857,-2.7859,-2.7888,-2.7893,-2.7898,0,0,0,0,0,0,-2.793,-2.7911,-2.7901,-2.7912,-2.7906,-2.789,-2.7898,-2.7884,-2.7881,-2.7879,-2.7858,-2.7855,-2.7865,-2.7858,-2.7847,-2.7867,-2.7849,-2.7851,-2.7871,-2.7876,-2.788,-2.7881,-2.782,0,0,0,0,0,-2.7938,-2.794,-2.7924,-2.7936,-2.7933,-2.7916,-2.7916,-2.7904,-2.7896,-2.7893,-2.7883,-2.7876,-2.7876,-2.7876,-2.7875,-2.789,-2.7886,-2.7898,-2.7902,-2.7906,-2.7907,-2.7914,-2.7919,-2.7867,-2.7867,-2.7867,0,0,-2.7955,-2.7945,-2.7948,-2.7942,-2.7935,-2.7938,-2.7914,-2.7918,-2.7919,-2.7894,-2.79,-2.7893,-2.7884,-2.7895,-2.7899,-2.789,-2.7921,-2.7909,-2.7912,-2.7911,-2.7917,-2.7922,-2.7926,-2.7869,-2.7868,-2.7868,0,0,-2.7987,-2.798,-2.7989,-2.7983,-2.7974,-2.7963,-2.7966,-2.7953,-2.7947,-2.7953,-2.7934,-2.7936,-2.7936,-2.793,-2.7928,-2.796,-2.7944,-2.796,-2.7982,-2.7989,-2.7993,-2.7997,-2.8007,-2.8011,-2.7962,-2.7962,-2.7962,0,-2.8009,-2.8011,-2.7995,-2.8,-2.7998,-2.7976,-2.7984,-2.798,-2.7971,-2.797,-2.796,-2.796,-2.7953,-2.7962,-2.797,-2.7969,-2.797,-2.796,-2.7994,-2.7997,-2.8,-2.801,-2.8014,-2.7964,-2.7964,-2.7964,-2.7964,0,-2.8039,-2.8041,-2.8049,-2.8041,-2.8041,-2.8048,-2.8032,-2.8033,-2.8022,-2.8012,-2.8019,-2.801,-2.8007,-2.8009,-2.7997,-2.8017,-2.8011,-2.7998,-2.7978,-2.8007,-2.8016,-2.802,-2.7967,-2.7966,-2.7966,-2.7965,0,0,-2.8087,-2.8071,-2.8074,-2.8071,-2.806,-2.8062,-2.8068,-2.8065,-2.8066,-2.8062,-2.8066,-2.8068,-2.8056,-2.8053,-2.8041,-2.8048,-2.8073,-2.8034,-2.8033,-2.804,-2.8093,-2.8101,-2.8106,-2.8064,-2.8064,-2.8065,-2.8093,0,-2.8115,-2.8124,-2.811,-2.8123,-2.8125,-2.8105,-2.8111,-2.8105,-2.8097,-2.8098,-2.8089,-2.809,-2.8074,-2.8072,-2.8078,-2.8068,-2.8083,-2.8067,-2.8067,-2.8067,-2.8067,-2.811,-2.8119,-2.8146,-2.8096,-2.8097,-2.8097,0,-2.8148,-2.8146,-2.8158,-2.8148,-2.8148,-2.8153,-2.8149,-2.8151,-2.8144,-2.8138,-2.8136,-2.8122,-2.8128,-2.8111,-2.8119,-2.8108,-2.8108,-2.8103,-2.8104,-2.8101,-2.8082,-2.8107,-2.8154,-2.8157,-2.8103,-2.8102,-2.8102,0,-2.8181,-2.8181,-2.8188,-2.8186,-2.8174,-2.8178,-2.8173,-2.8166,-2.8165,-2.8163,-2.8162,-2.816,-2.8159,-2.8158,-2.8145,-2.8134,-2.8153,-2.8135,-2.8148,-2.8148,-2.815,-2.815,-2.8196,-2.8154,-2.8154,-2.8154,-2.8154,0,-2.8212,-2.822,-2.8202,-2.8207,-2.8215,-2.82,-2.8209,-2.8203,-2.8197,-2.82,-2.8184,-2.8187,-2.817,-2.8172,-2.8162,-2.8169,-2.8169,-2.8163,-2.816,-2.8164,-2.8164,-2.8161,-2.8159,-2.8155,-2.8155,-2.8154,-2.8154,0,-2.8248,-2.8237,-2.8243,-2.8232,-2.823,-2.8237,-2.8227,-2.8231,-2.8223,-2.8227,-2.8227,-2.8214,-2.8215,-2.8202,-2.8201,-2.8194,-2.8205,-2.82,-2.8207,-2.8205,-2.8217,-2.8215,-2.8261,-2.8266,-2.8222,-2.8223,-2.8223,0,-2.8268,-2.8274,-2.8264,-2.8265,-2.8261,-2.8263,-2.8262,-2.8248,-2.8248,-2.8242,-2.8247,-2.8247,-2.8246,-2.8248,-2.8239,-2.8238,-2.8231,-2.8247,-2.823,-2.8234,-2.8229,-2.8228,-2.8228,-2.825,-2.825,-2.8251,-2.8251,0,-2.8304,-2.8298,-2.8298,-2.8296,-2.8296,-2.8294,-2.8291,-2.8293,-2.8278,-2.8279,-2.828,-2.8279,-2.8278,-2.8278,-2.8276,-2.8271,-2.8258,-2.8257,-2.8259,-2.8262,-2.8265,-2.8262,-2.8215,-2.8255,-2.8255,-2.8254,-2.8254,-2.8254,-2.8331,-2.8336,-2.8329,-2.833,-2.8326,-2.8324,-2.8327,-2.832,-2.832,-2.8318,-2.8311,-2.8313,-2.8308,-2.8303,-2.83,-2.8302,-2.8294,-2.8297,-2.8298,-2.8299,-2.83,-2.8267,-2.8301,-2.8301,-2.8301,-2.8301,-2.8301,0,-2.8365,-2.836,-2.8361,-2.8358,-2.8358,-2.8348,-2.8344,-2.8345,-2.8348,-2.8344,-2.8344,-2.8345,-2.8345,-2.8337,-2.8336,-2.8339,-2.8333,-2.8339,-2.8338,-2.8337,-2.8308,-2.8305,-2.8344,-2.8344,-2.8344,-2.8344,-2.8344,-2.8344,-2.8382,-2.8389,-2.8383,-2.8388,-2.8383,-2.8386,-2.8384,-2.8382,-2.8379,-2.8382,-2.8382,-2.8377,-2.8371,-2.837,-2.837,-2.8367,-2.8367,-2.8375,-2.837,-2.8343,-2.8339,-2.8335,-2.8332,-2.8375,-2.8375,-2.8398,-2.8398,-2.8398]},{"header":{"parameterUnit":"m.s-1","parameterCategory":1,"la1":30.2991,"la2":30.254,"lo1":-89.0895,"lo2":-89.0444,"dy":0.0017,"dx":0.0017,"nx":28,"ny":28,"refTime":"2024-05-01T21:00:00:Z","depth":0,"parameterNumber":3,"parameterNumberName":"V-component_of_WINDS"},"data":[0,0,0,0,0,0,0,0,0,0,0,0,0,0,0,0,0,0,0,0,0,0,0,0,0,0,0,0,0,0,0,0,0,0,0,0,0,0,0,0,0,0,0,0,0,0,0,0,0,0,0,0,0,0,0,0,0,0,1.1517,1.1517,0,1.1502,1.1502,1.1502,1.152,1.1521,1.1522,1.1522,1.1505,1.1503,1.1502,0,0,0,0,0,0,0,0,0,0,0,0,0,1.1561,1.156,1.1517,1.1517,1.1516,1.1502,1.1502,1.1502,1.152,1.1521,1.1522,1.1523,1.1505,1.1504,1.1502,0,0,0,0,0,0,0,0,0,0,0,0,0,1.1544,1.156,1.1517,1.1524,1.1524,1.1502,1.1502,1.1502,1.152,1.1521,1.1522,1.1523,1.1505,1.1504,1.1502,1.1471,0,0,1.1497,1.1496,0,0,0,0,0,0,0,0,1.1545,1.1542,1.1523,1.1523,1.1524,1.1514,1.1511,1.1491,1.152,1.1522,1.1522,1.1523,1.1507,1.1505,1.15,1.147,1.147,1.1497,1.1496,1.1495,1.1495,0,0,0,0,0,0,0,1.1546,1.1543,1.1511,1.1523,1.1523,1.1528,1.1527,1.1507,1.1508,1.1521,1.1523,1.1521,1.1507,1.1501,1.15,1.1469,1.1497,1.1495,1.1494,1.1494,1.1417,1.1416,0,0,0,0,0,0,1.1546,1.1544,1.1511,1.151,1.1537,1.1526,1.1525,1.1516,1.1509,1.1509,1.152,1.1522,1.1504,1.1502,1.1499,1.1464,1.1495,1.1494,1.1493,1.1418,1.1417,1.1416,0,0,0,0,0,0,1.1547,1.1543,1.1512,1.1527,1.1524,1.1525,1.1515,1.1515,1.151,1.1508,1.1508,1.1514,1.1505,1.1501,1.1479,1.1464,1.1493,1.1491,1.1419,1.1418,1.1416,1.1393,0,0,0,0,0,0,1.1548,1.1544,1.1531,1.1527,1.1523,1.1492,1.1514,1.1514,1.1507,1.1509,1.1502,1.1502,1.1505,1.1481,1.1477,1.1462,1.149,1.1421,1.1418,1.1417,1.1395,1.1391,1.1387,0,0,0,0,0,1.155,1.1524,1.1531,1.1527,1.1508,1.1491,1.1488,1.1493,1.1506,1.1494,1.1493,1.1502,1.1466,1.1479,1.1474,1.1458,1.1421,1.1419,1.1417,1.1397,1.1391,1.1387,0,0,0,0,0,0,1.1524,1.1523,1.1531,1.1503,1.1497,1.1494,1.1479,1.1487,1.1477,1.1479,1.1485,1.1484,1.146,1.1457,1.1471,1.143,1.1446,1.1443,1.1432,1.1427,1.1423,1.1424,1.1489,0,0,0,0,0,1.1516,1.1503,1.1502,1.1478,1.1475,1.1477,1.147,1.1475,1.1469,1.1466,1.1463,1.1457,1.1445,1.1436,1.1424,1.1395,1.1395,1.1382,1.1378,1.1375,1.1372,1.1359,1.1354,1.1408,1.1408,1.1408,0,0,1.1497,1.1495,1.1486,1.1473,1.1469,1.1455,1.1475,1.1459,1.1449,1.1463,1.1442,1.1441,1.1434,1.1409,1.1397,1.1405,1.1357,1.1372,1.137,1.1368,1.1356,1.1351,1.1346,1.1406,1.1407,1.1407,0,0,1.1457,1.1453,1.1434,1.143,1.1425,1.1428,1.1423,1.142,1.142,1.14,1.1411,1.14,1.1377,1.1373,1.1367,1.133,1.1338,1.1326,1.1305,1.1292,1.1288,1.1284,1.1272,1.1267,1.1323,1.1323,1.1323,0,1.1434,1.1414,1.1422,1.1406,1.1401,1.1416,1.1397,1.1393,1.1383,1.1379,1.1389,1.1364,1.136,1.1335,1.1327,1.1322,1.1317,1.1326,1.1288,1.1284,1.1281,1.1269,1.1264,1.1321,1.1322,1.1322,1.1322,0,1.1387,1.1373,1.1358,1.1351,1.1344,1.1326,1.1333,1.1325,1.1331,1.1333,1.1314,1.1311,1.13,1.1294,1.1299,1.1271,1.1277,1.1287,1.1303,1.1274,1.1263,1.1259,1.1319,1.132,1.132,1.1321,0,0,1.1327,1.1328,1.1322,1.132,1.1317,1.1307,1.1291,1.1282,1.1276,1.127,1.1258,1.1241,1.1251,1.1246,1.1251,1.124,1.1212,1.1252,1.1252,1.1245,1.1183,1.1175,1.117,1.1219,1.1218,1.1217,1.1184,0,1.1287,1.126,1.1269,1.1242,1.1231,1.1247,1.1233,1.1231,1.1233,1.1224,1.1226,1.1215,1.1229,1.1226,1.1216,1.1218,1.12,1.122,1.1207,1.1207,1.1208,1.1164,1.1155,1.1123,1.118,1.1179,1.1178,0,1.1236,1.1231,1.1203,1.1206,1.1201,1.1189,1.1183,1.1174,1.1172,1.1175,1.1171,1.1179,1.1165,1.1183,1.1164,1.1178,1.1173,1.1174,1.1173,1.1171,1.119,1.1161,1.1113,1.1109,1.1172,1.1172,1.1173,0,1.1196,1.1182,1.1164,1.1162,1.1164,1.1156,1.1156,1.1155,1.1151,1.1146,1.1143,1.1136,1.1132,1.1127,1.1134,1.1146,1.1114,1.1132,1.1117,1.1116,1.1108,1.1108,1.1059,1.1105,1.1105,1.1106,1.1106,0,1.115,1.1133,1.1147,1.1136,1.1118,1.1129,1.1111,1.1113,1.1113,1.1104,1.1117,1.1108,1.1118,1.111,1.1115,1.11,1.1097,1.11,1.1101,1.1098,1.1098,1.1095,1.1097,1.1104,1.1105,1.1105,1.1105,0,1.1101,1.111,1.1092,1.1097,1.1098,1.1085,1.1089,1.1079,1.1085,1.1072,1.107,1.1078,1.1069,1.1077,1.1067,1.1072,1.1051,1.1056,1.1052,1.1053,1.1038,1.104,1.0984,1.0978,1.1029,1.1028,1.1028,0,1.1071,1.1059,1.1064,1.1059,1.1059,1.1051,1.1047,1.1059,1.1054,1.1054,1.1045,1.1038,1.1033,1.1019,1.1023,1.1018,1.1022,1.1004,1.1021,1.102,1.1023,1.1024,1.1023,1.1,1.0999,1.0998,1.0998,0,1.1018,1.1024,1.1018,1.1015,1.101,1.1008,1.1006,1.1002,1.1014,1.1009,1.1001,1.0998,1.0991,1.0984,1.0981,1.0981,1.0992,1.0993,1.0989,1.0986,1.0985,1.0986,1.1043,1.0994,1.0994,1.0994,1.0995,1.0995,1.0978,1.0969,1.0972,1.0966,1.0967,1.0966,1.0958,1.0964,1.0958,1.0954,1.0962,1.0953,1.0955,1.0951,1.0951,1.0945,1.0953,1.0947,1.0945,1.0944,1.0942,1.0986,1.0944,1.0944,1.0944,1.0944,1.0945,0,1.0926,1.093,1.0924,1.0923,1.0919,1.0932,1.0932,1.0928,1.092,1.0921,1.0918,1.091,1.0905,1.0911,1.0907,1.0901,1.0906,1.09,1.09,1.09,1.0935,1.0939,1.0896,1.0896,1.0896,1.0896,1.0896,1.0896,1.0898,1.0884,1.0891,1.0878,1.0882,1.0875,1.0874,1.0874,1.0876,1.0868,1.0864,1.0869,1.0872,1.0869,1.0866,1.0868,1.0866,1.0858,1.0861,1.0893,1.0898,1.0902,1.0906,1.0857,1.0857,1.0828,1.0827,1.0827]}]]